This is the latest recevied weather packets stored in our database for station/object KD4EED. If no packets are shown the sender has not sent any weather packets the latest 10 day(s).
| Time | Temp. | Humidity | Pressure | Rain* | Wind** | Luminosity | Snow |
|---|---|---|---|---|---|---|---|
| 1788327446 | 17.78° C | 80% | 1012.7 hPa | - | - | 0 W/m² | - |
| 1788327145 | 17.78° C | 80% | 1012.5 hPa | - | - | 0 W/m² | - |
| 1788326845 | 18.33° C | 80% | 1012.4 hPa | - | - | 0 W/m² | - |
| 1788326540 | 18.33° C | 79% | 1012.7 hPa | - | - | 0 W/m² | - |
| 1788326239 | 18.33° C | 79% | 1012.6 hPa | - | - | 0 W/m² | - |
| 1788325934 | 18.33° C | 79% | 1012.5 hPa | - | - | 0 W/m² | - |
| 1788325629 | 18.33° C | 79% | 1012.7 hPa | - | - | 0 W/m² | - |
| 1788325324 | 18.33° C | 79% | 1012.4 hPa | - | - | 0 W/m² | - |
| 1788325019 | 18.33° C | 78% | 1012.5 hPa | - | - | 0 W/m² | - |
| 1788324715 | 18.89° C | 78% | 1012.6 hPa | - | - | 0 W/m² | - |
| 1788324410 | 18.89° C | 78% | 1012.5 hPa | - | - | 0 W/m² | - |
| 1788324106 | 18.89° C | 77% | 1012.3 hPa | - | - | 0 W/m² | - |
| 1788323801 | 18.89° C | 77% | 1012.1 hPa | - | - | 0 W/m² | - |
| 1788323496 | 18.89° C | 76% | 1012.3 hPa | - | - | 0 W/m² | - |
| 1788323196 | 18.89° C | 76% | 1012.2 hPa | - | - | 0 W/m² | - |
| 1788322891 | 19.44° C | 75% | 1012.1 hPa | - | - | 0 W/m² | - |
| 1788322590 | 19.44° C | 74% | 1012.2 hPa | - | - | 0 W/m² | - |
| 1788322285 | 19.44° C | 74% | 1012.1 hPa | - | - | 0 W/m² | - |
| 1788321984 | 20° C | 73% | 1012 hPa | - | - | 0 W/m² | - |
| 1788321680 | 20° C | 72% | 1011.9 hPa | - | - | 0 W/m² | - |
| 1788321379 | 20° C | 72% | 1011.8 hPa | - | - | 0 W/m² | - |
| 1788321074 | 20° C | 71% | 1011.7 hPa | - | - | 0 W/m² | - |
| 1788320773 | 21.11° C | 68% | 1011.8 hPa | - | - | 0 W/m² | - |
| 1788320472 | 21.11° C | 68% | 1011.6 hPa | - | - | 0 W/m² | - |
| 1788320172 | 21.11° C | 68% | 1011.5 hPa | - | - | 0 W/m² | - |
* Rain since midnight (hover to see other rain measurements)
** Current wind speed in m/s (hover to see current wind gust speed)